CZ-6A DEB, 56629

Orbit data source: Space-Track

CZ-6A DEB, 56629 is space debris in SSO originally from a launch on Fri, 11 Nov 2022 UTC launched from the Taiyaun Space Center, China (TSC). Debris objects in space refer to the collection of defunct objects orbiting the Earth. Examples of debris include non-operational satellites, rocket bodies, and fragments generated from explosions, collisions, or faulty payload assembly.

Loading next visibility...
Identifier
56629, 2022-151AFD
Orbit
SSO
Country
Flag of CNCN / PRC
Related business
Manufacturer
SAST
Mission
Spacecraft
Bus & Motor
Unknown
Mass
Unknown
Launch date (UTC)
2022-11-11 (4 years ago)
Launch vehicle
Unknown
Launch site
Taiyaun Space Center, China (TSC)
Object type
Payload
Rocket body
Debris
Shape & HBR
Unknown shape, 0.1 m
Radar Cross Section
Small (<0.1 m²)

Expand to show TLE details & history
Last TLE update: 3 days ago

TLE from 3 days ago
0 CZ-6A DEB
1 56629U 22151AFD 26170.40636723  .00006229  00000-0  12353-2 0  9991
2 56629  98.6203 222.6923 0070563 322.8327  36.7998 14.61026515166985
Epoch: 2026-06-19T09:45Z
TLE epoch observation values (Epoch: 2026-06-19T09:45:10.128Z)
Latitude
-0.00007°
Longitude
168.76431°
Altitude
653.018 km
Speed
7.552 km/s
True Right ascension
14h 50m 46s
True Declination
0° 00' 00"
Sunlit
Object was in full shadow at epoch
Visualization orbit readout
Latitude
Unknown
Longitude
Unknown
Altitude
Unknown
Speed
Unknown
Apparent Right ascension
Unknown
Apparent Declination
Unknown
Sunlit
N/A
Visualization observer readout
Local Sidereal Time
21:39:33
Azimuth
Unknown
Elevation
Unknown
Doppler factor
Unknown
Orbital elements
Apogee altitude
736.814 km
Perigee altitude
637.107 km
Semi-major axis
7,065.098 km
Eccentricity
0.00706
Inclination
98.6203°
RAAN
222.6923°
Arg. of periapsis
322.8327°
True anomaly
37.2876°
Mean anomaly
36.7998°
Eccentric anomaly
37.04336°
Mean motion
3.65482 °/min
Orbital period
98.5 mins
BSTAR
0.0012353
Loading maneuver chart data...
Computing Atmospheric mass density...
Loading historical data...
Loading historical data...
Loading historical data...
Loading historical data...
Loading historical data...
Loading historical data...
Loading historical data...

Documentation

Showing up to 5 results
|